Regional Weather Roundup
Issued by NWS

Home | Current Version | Previous Version | Graphics & Text | Print | Product List | Glossary On
Versions: 1 2 3 4 5 6 7 8 9 10 11 12 13 14 15 16 17 18 19 20 21 22 23 24 25 26 27 28 29 30 31 32 33 34 35 36 37 38 39 40 41 42 43 44 45 46 47 48 49 50
000
ASUS43 KFSD 220310
RWRSD

WEATHER ROUNDUP FOR SOUTH DAKOTA
NATIONAL WEATHER SERVICE SIOUX FALLS SD
900 PM CST TUE FEB 21 2017

NOTE: "FAIR" INDICATES FEW OR NO CLOUDS BELOW 12,000 FEET WITH NO
SIGNIFICANT WEATHER AND/OR OBSTRUCTIONS TO VISIBILITY.


SDZ001>005-009-010-012>017-220400-
NORTHWEST AND NORTH CENTRAL SOUTH DAKOTA

CITY           SKY/WX    TMP DP  RH WIND       PRES   REMARKS
BUFFALO          N/A     42  36  79 E8        29.61F
FAITH            N/A     52  33  48 N18G31    29.70R
MOBRIDGE       CLOUDY    47  35  63 NE14      29.60R
$$

SDZ012>016-024>037-041>051-057-063-072>074-220400-
SOUTHWEST AND SOUTH CENTRAL SOUTH DAKOTA

CITY           SKY/WX    TMP DP  RH WIND       PRES   REMARKS
RAPID CTY ARPT CLEAR     51  36  56 NW18      29.74R
PIERRE         MOCLDY    48  37  65 NE8       29.60S
CUSTER         MOCLDY    48  27  44 W9G20     29.78R
ELLSWORTH AFB  PTCLDY    52  37  56 NW22      29.72R
PHILIP         PTCLDY    58  34  40 NW12      29.67R
PINE RIDGE     CLEAR     44  32  62 SW10      29.74S
SPEARFISH      FAIR      46  39  76 SW8G15    29.73F
WINNER         FAIR      56  33  42 SW10      29.67R
$$

SDZ004>011-016>023-039-040-220400-
NORTHEAST SOUTH DAKOTA

CITY           SKY/WX    TMP DP  RH WIND       PRES   REMARKS
ABERDEEN       CLOUDY    47  37  68 E7        29.63F
WATERTOWN      CLEAR     41  38  89 S3        29.66F
BROOKINGS      CLEAR     45  39  79 SE6       29.67F
SISSETON         N/A     39  37  92 VRB3      29.66F
$$

SDZ017-020-022-023-036>040-048>070-220400-
SOUTHEAST SOUTH DAKOTA

CITY           SKY/WX    TMP DP  RH WIND       PRES   REMARKS
SIOUX FALLS    CLEAR     42  37  82 CALM      29.68F
HURON          CLOUDY    50  37  61 SE6       29.63S
CHAMBERLAIN    CLEAR     48  38  67 S5        29.63F HAZE
MITCHELL       CLEAR     50  38  63 S10       29.64F
YANKTON        CLEAR     54  36  50 S5        29.67F
$$

ABBREVIATIONS USED IN REMARKS
   TC - TEMPERATURE IN CELSIUS
  WCI - WIND CHILL INDEX
   HX - HEAT INDEX
  VSB - VISIBILITY





USA.gov is the U.S. government's official web portal to all federal, state and local government web resources and services.